DB0BGL Weather Reports


Display with metric or nautical units.
time (UTC)temp
F
wind
direction
speed
MPH
gust
MPH
rain 1hr
in
rain 24hr
in
rain mn
in
humidity
%
barometer
mb
20260905155454 52 358 2.0 26.0 0.00 0.00 0.00 83
20260905154453 52 82 15.0 20.0 0.00 0.00 0.00 79
20260905153453 51 75 11.0 20.0 0.00 0.00 0.00 85
20260905152452 51 74 8.0 23.0 0.00 0.00 0.00 88
20260905151451 51 111 5.0 22.0 0.00 0.00 0.00 92
20260905150451 50 137 7.0 24.0 0.00 0.00 0.00 90
20260905145450 49 120 11.0 27.0 0.00 0.00 0.00 95
20260905144450 48 64 9.0 20.0 0.00 0.00 0.00 99
20260905143449 48 61 5.0 19.0 0.00 0.00 0.00 100
20260905142449 48 68 1.0 12.0 0.00 0.00 0.00 100
20260905141448 49 63 0.0 9.0 0.00 0.00 0.00 100
20260905140447 49 54 10.0 10.0 0.00 0.00 0.00 100
20260905135448 50 64 0.0 7.0 0.00 0.00 0.00 100
20260905134447 51 43 0.0 0.0 0.00 0.00 0.00 100
20260905133446 51 43 0.0 0.0 0.00 0.00 0.00 100
20260905132445 51 52 0.0 6.0 0.00 0.00 0.00 100
20260905131444 51 52 0.0 5.0 0.00 0.00 0.00 100
20260905130444 51 56 4.0 7.0 0.00 0.00 0.00 99
20260905125444 53 85 0.0 1.0 0.00 0.00 0.00 96
20260905124443 54 68 0.0 7.0 0.00 0.00 0.00 92
20260905123442 56 67 1.0 5.0 0.00 0.00 0.00 85
20260905122441 57 59 0.0 0.0 0.00 0.00 0.00 100
20260905121441 57 59 0.0 0.0 0.00 0.00 0.00 81
20260905120440 57 59 0.0 4.0 0.00 0.00 0.00 80
20260905115441 57 59 3.0 20.0 0.00 0.00 0.00 67
20260905114439 56 67 5.0 20.0 0.00 0.00 0.00 69
20260905113438 56 63 5.0 12.0 0.00 0.00 0.00 78
20260905112441 56 53 0.0 7.0 0.00 0.00 0.00 69
20260905111437 56 56 2.0 8.0 0.00 0.00 0.00 78
20260905110438 57 49 1.0 10.0 0.00 0.00 0.00 68
20260905105323 57 50 3.0 16.0 0.00 0.00 0.00 65
20260905104322 56 45 2.0 21.0 0.00 0.00 0.00 66
20260905103321 56 63 6.0 21.0 0.00 0.00 0.00 65
20260905102321 56 52 14.0 23.0 0.00 0.00 0.00 65
20260905101320 56 84 9.0 24.0 0.00 0.00 0.00 65
20260905100320 56 60 13.0 24.0 0.00 0.00 0.00 100
20260905095319 57 99 8.0 25.0 0.00 0.00 0.00 64
20260905094319 57 36 11.0 20.0 0.00 0.00 0.00 64
20260905093318 56 53 7.0 21.0 0.00 0.00 0.00 100
20260905092317 54 56 5.0 17.0 0.00 0.00 0.00 75
20260905091317 53 71 6.0 32.0 0.00 0.00 0.00 76
20260905090316 52 57 10.0 21.0 0.00 0.00 0.00 81
20260905085316 52 46 5.0 23.0 0.00 0.00 0.00 74
20260905084315 54 46 5.0 28.0 0.00 0.00 0.00 73
20260905083314 55 52 12.0 37.0 0.00 0.00 0.00 70
20260905082314 54 49 8.0 32.0 0.00 0.00 0.00 72
20260905081313 51 63 7.0 28.0 0.00 0.00 0.00 82
20260905080313 49 68 6.0 21.0 0.00 0.00 0.00 99
20260905075312 48 68 4.0 17.0 0.00 0.00 0.00 100
20260905074311 48 78 5.0 13.0 0.00 0.00 0.00 100
20260905073314 48 78 6.0 15.0 0.00 0.00 0.00 100
20260905073312 48 78 6.0 15.0 0.00 0.00 0.00 100
20260905072312 48 67 4.0 9.0 0.00 0.00 0.00 100
20260905071310 47 59 0.0 0.0 0.00 0.00 0.00 100
20260905070310 47 59 0.0 4.0 0.00 0.00 0.00 100
20260905065308 47 64 0.0 0.0 0.00 0.00 0.00 100
20260905064308 47 64 0.0 0.0 0.00 0.00 0.00 100
20260905063307 47 64 0.0 0.0 0.00 0.00 0.00 100
20260905062307 47 64 0.0 0.0 0.00 0.00 0.00 100
20260905061306 48 64 0.0 2.0 0.00 0.00 0.00 100
20260905060306 49 64 0.0 7.0 0.00 0.00 0.00 100
20260905055306 51 63 0.0 4.0 0.00 0.00 0.00 100
20260905054304 51 63 0.0 0.0 0.00 0.00 0.00 100
20260905053304 51 63 0.0 0.0 0.00 0.00 0.00 100